Location: Poughquag
(41.6090°N, 73.6820°W)
Time: 14:59:20
(UTC-04:00)

Explorer 11/Cluster Stage 4 - Pass Details

Date: 07 June 2020
Orbit: 467 x 1259 km, 28.8° (Epoch: 05 July)

Event Time Altitude Azimuth Distance (km) Brightness Sun altitude
Rises 09:16:56 0° 249° (WSW) 3,565 9.5 41.4°
Reaches altitude 10° 09:22:41 10° 209° (SSW) 2,864 9.4 42.4°
Maximum altitude 09:23:31 10° 203° (SSW) 2,879 9.4 42.6°
Drops below altitude 10° 09:24:21 10° 196° (SSW) 2,925 9.5 42.7°
Sets 09:30:52 0° 158° (SSE) 4,075 10.5 43.9°
